STARLINK-35381

Last updated on Mon Oct 20 2025 00:02:07 GMT+0000 (Coordinated Universal Time)

1 65826U 25221D 25292.25002315 -.01566141 00000+0 -28787-1 0 9995 2 65826 53.1609 27.8519 0001174 88.7365 238.0715 15.51586464 4437
UTC large
Height (km)
Speed (km/s)
/
Latitude / Longitude
Inclination (degrees)
Orbital Period (minutes)
Azimuth
Elevation
Range (km)
Doppler Factor

Next 0 passes for location: London (51.5072 / 0.1276)

Sorry there are no passes over London.